TimeMST,TemperatureF,Dew PointF,Humidity,Sea Level PressureIn,VisibilityMPH,Wind Direction,Wind SpeedMPH,Gust SpeedMPH,PrecipitationIn,Events,Conditions,WindDirDegrees,DateUTC
12:52 AM,37.0,28.0,70,29.64,10.0,SE,11.5,-,N/A,,Mostly Cloudy,140,2012-12-19 07:52:00
1:52 AM,39.0,28.0,65,29.62,10.0,South,8.1,-,N/A,,Mostly Cloudy,180,2012-12-19 08:52:00
2:52 AM,39.9,28.0,63,29.57,10.0,South,13.8,-,N/A,,Overcast,170,2012-12-19 09:52:00
3:52 AM,39.0,28.9,67,29.56,10.0,SSE,9.2,-,N/A,,Mostly Cloudy,160,2012-12-19 10:52:00
4:52 AM,39.0,28.0,65,29.54,10.0,South,8.1,-,N/A,,Scattered Clouds,170,2012-12-19 11:52:00
5:52 AM,36.0,27.0,70,29.53,10.0,South,6.9,-,N/A,,Scattered Clouds,170,2012-12-19 12:52:00
6:52 AM,39.9,27.0,60,29.54,10.0,WSW,11.5,21.9,N/A,,Overcast,240,2012-12-19 13:52:00
7:02 AM,35.6,28.4,75,29.60,10.0,West,8.1,-,0.00,Rain,Light Rain,270,2012-12-19 14:02:00
7:52 AM,39.0,33.1,79,29.60,10.0,WSW,17.3,21.9,0.00,,Overcast,240,2012-12-19 14:52:00
8:52 AM,39.9,28.0,63,29.65,10.0,West,16.1,25.3,N/A,,Mostly Cloudy,270,2012-12-19 15:52:00
9:52 AM,37.9,26.1,62,29.71,10.0,West,32.2,48.3,0.00,Snow,Light Snow,270,2012-12-19 16:52:00
10:52 AM,37.0,16.0,42,29.73,10.0,West,33.4,46.0,0.00,,Partly Cloudy,260,2012-12-19 17:52:00
11:52 AM,37.9,15.1,39,29.75,10.0,West,32.2,43.7,N/A,,Partly Cloudy,270,2012-12-19 18:52:00
12:52 PM,39.9,12.9,33,29.74,10.0,West,33.4,46.0,N/A,,Scattered Clouds,280,2012-12-19 19:52:00
1:52 PM,36.0,19.0,50,29.81,10.0,NNW,25.3,34.5,N/A,,Mostly Cloudy,330,2012-12-19 20:52:00
2:52 PM,37.0,10.0,33,29.86,10.0,WNW,31.1,47.2,N/A,,Partly Cloudy,300,2012-12-19 21:52:00
3:52 PM,34.0,7.0,32,29.96,10.0,NW,28.8,39.1,N/A,,Partly Cloudy,310,2012-12-19 22:52:00
4:52 PM,32.0,9.0,38,30.02,10.0,NW,17.3,24.2,N/A,,Partly Cloudy,320,2012-12-19 23:52:00
5:52 PM,30.0,9.0,41,30.11,10.0,WNW,17.3,-,N/A,,Partly Cloudy,300,2012-12-20 00:52:00
6:52 PM,28.9,9.0,43,30.17,10.0,NNE,4.6,24.2,N/A,,Scattered Clouds,20,2012-12-20 01:52:00
7:52 PM,28.0,8.1,43,30.22,10.0,NNW,19.6,29.9,N/A,,Partly Cloudy,340,2012-12-20 02:52:00
8:52 PM,27.0,7.0,43,30.26,10.0,NNW,15.0,-,N/A,,Partly Cloudy,340,2012-12-20 03:52:00
9:52 PM,26.1,7.0,44,30.31,10.0,North,5.8,-,N/A,,Clear,350,2012-12-20 04:52:00
10:52 PM,25.0,5.0,43,30.35,10.0,NNW,6.9,-,N/A,,Clear,340,2012-12-20 05:52:00
11:52 PM,23.0,5.0,46,30.37,10.0,North,8.1,-,N/A,,Clear,10,2012-12-20 06:52:00